N1YZ Weather Reports


time (UTC)temp
C
wind
direction
speed
KPH
gust
KPH
rain 1hr
cm
rain 24hr
cm
rain mn
cm
humidity
%
barometer
mb
20260831225707 31 19 0.0 0.0 0.00 0.00 0.00 63 1037.1
20260831225202 31 11 0.0 0.0 0.00 0.00 0.00 62 1037.0
20260831224656 31 25 0.0 0.0 0.00 0.00 0.00 61 1036.9
20260831224151 31 12 0.0 0.0 0.00 0.00 0.00 61 1037.0
20260831223647 31 30 0.0 0.0 0.00 0.00 0.00 61 1036.9
20260831223144 31 0 0.0 0.0 0.00 0.00 0.00 63 1036.7
20260831222639 32 353 0.0 0.0 0.00 0.00 0.00 64 1036.7
20260831222134 32 2 0.0 0.0 0.00 0.00 0.00 63 1036.8
20260831221630 31 20 0.0 0.0 0.00 0.00 0.00 63 1036.9
20260831221125 31 16 0.0 0.0 0.00 0.00 0.00 64 1036.8
20260831220620 32 1 0.0 0.0 0.00 0.00 0.00 64 1036.8
20260831220115 32 339 1.6 3.2 0.00 0.00 0.00 63 1037.1
20260831215610 32 347 0.0 0.0 0.00 0.00 0.00 63 1036.8
20260831215106 32 358 0.0 0.0 0.00 0.00 0.00 63 1037.0
20260831214603 32 32 0.0 0.0 0.00 0.00 0.00 61 1037.0
20260831214059 32 10 0.0 0.0 0.00 0.00 0.00 62 1037.2
20260831213556 32 26 0.0 0.0 0.00 0.00 0.00 60 1037.1
20260831213052 32 19 0.0 0.0 0.00 0.00 0.00 61 1037.0
20260831212547 32 21 0.0 0.0 0.00 0.00 0.00 61 1037.3
20260831212043 32 350 0.0 1.6 0.00 0.00 0.00 60 1037.3
20260831211537 32 17 0.0 0.0 0.00 0.00 0.00 62 1037.3
20260831211036 32 43 0.0 0.0 0.00 0.00 0.00 61 1037.4
20260831210532 31 143 1.6 1.6 0.00 0.00 0.00 62 1037.6
20260831210028 31 20 0.0 1.6 0.00 0.00 0.00 62 1037.3
20260831205522 32 27 1.6 1.6 0.00 0.00 0.00 63 1037.4
20260831205019 33 358 0.0 0.0 0.00 0.00 0.00 62 1037.4
20260831204518 33 3 0.0 1.6 0.00 0.00 0.00 61 1037.5
20260831204016 33 61 0.0 0.0 0.00 0.00 0.00 58 1037.3
20260831203511 32 108 1.6 3.2 0.00 0.00 0.00 59 1037.5
20260831203010 32 358 0.0 0.0 0.00 0.00 0.00 62 1037.4
20260831202504 32 359 3.2 3.2 0.00 0.00 0.00 63 1037.5
20260831202004 32 24 0.0 0.0 0.00 0.00 0.00 62 1037.3
20260831201502 33 27 0.0 0.0 0.00 0.00 0.00 60 1037.5
20260831200958 33 11 0.0 0.0 0.00 0.00 0.00 60 1037.8
20260831200454 32 13 0.0 0.0 0.00 0.00 0.00 58 1037.8
20260831195948 32 110 1.6 1.6 0.00 0.00 0.00 58 1037.9
20260831195444 32 4 1.6 1.6 0.00 0.00 0.00 60 1038.1
20260831194938 32 10 0.0 1.6 0.00 0.00 0.00 59 1038.0
20260831194434 32 25 0.0 0.0 0.00 0.00 0.00 61 1038.0
20260831193934 32 351 0.0 0.0 0.00 0.00 0.00 58 1038.0
20260831193429 32 18 0.0 0.0 0.00 0.00 0.00 60 1038.3
20260831192924 32 4 0.0 0.0 0.00 0.00 0.00 62 1038.3
20260831192419 32 20 0.0 0.0 0.00 0.00 0.00 64 1038.2
20260831191914 32 19 0.0 0.0 0.00 0.00 0.00 63 1038.2
20260831191410 32 41 0.0 0.0 0.00 0.00 0.00 63 1038.0
20260831190907 32 341 3.2 3.2 0.00 0.00 0.00 64 1038.2
20260831190406 32 17 0.0 0.0 0.00 0.00 0.00 61 1038.2
20260831185905 33 4 0.0 0.0 0.00 0.00 0.00 58 1038.2
20260831185402 33 5 0.0 0.0 0.00 0.00 0.00 60 1038.5
20260831184901 33 15 1.6 1.6 0.00 0.00 0.00 63 1038.5
20260831184355 33 15 0.0 0.0 0.00 0.00 0.00 60 1038.7
20260831183850 33 61 0.0 0.0 0.00 0.00 0.00 62 1038.7
20260831183345 32 32 1.6 1.6 0.00 0.00 0.00 61 1038.8
20260831182844 31 23 0.0 0.0 0.00 0.00 0.00 67 1038.9
20260831182339 31 352 0.0 0.0 0.00 0.00 0.00 67 1039.0
20260831181834 32 350 0.0 0.0 0.00 0.00 0.00 68 1039.0
20260831181330 32 19 0.0 0.0 0.00 0.00 0.00 62 1039.1
20260831180824 32 188 3.2 3.2 0.00 0.00 0.00 63 1039.2
20260831180319 31 342 0.0 0.0 0.00 0.00 0.00 69 1039.3
20260831175818 31 22 0.0 0.0 0.00 0.00 0.00 66 1039.1
20260831175315 31 26 0.0 0.0 0.00 0.00 0.00 66 1039.3
20260831174810 31 10 0.0 0.0 0.00 0.00 0.00 66 1039.3
20260831174306 31 3 0.0 0.0 0.00 0.00 0.00 65 1039.5
20260831173805 31 20 0.0 0.0 0.00 0.00 0.00 70 1039.5
20260831173259 30 16 0.0 0.0 0.00 0.00 0.00 70 1039.7
20260831172754 31 35 0.0 0.0 0.00 0.00 0.00 69 1039.8
20260831172249 30 16 0.0 0.0 0.00 0.00 0.00 72 1039.6
20260831171750 31 2 0.0 1.6 0.00 0.00 0.00 69 1039.6
20260831171247 32 351 0.0 0.0 0.00 0.00 0.00 69 1039.7
20260831170744 32 42 0.0 0.0 0.00 0.00 0.00 66 1039.7
20260831170239 31 348 0.0 0.0 0.00 0.00 0.00 68 1039.8
20260831165736 31 16 0.0 0.0 0.00 0.00 0.00 67 1039.6
20260831165232 31 36 0.0 0.0 0.00 0.00 0.00 71 1039.7
20260831164727 31 343 1.6 1.6 0.00 0.00 0.00 70 1039.8
20260831164224 31 18 0.0 0.0 0.00 0.00 0.00 69 1039.8
20260831163718 30 205 0.0 0.0 0.00 0.00 0.00 70 1040.2
20260831163214 30 110 0.0 0.0 0.00 0.00 0.00 68 1040.2
20260831162713 30 355 1.6 3.2 0.00 0.00 0.00 73 1040.3
20260831162212 30 355 0.0 0.0 0.00 0.00 0.00 74 1040.2
20260831161707 30 32 0.0 0.0 0.00 0.00 0.00 74 1040.1
20260831161203 30 334 1.6 3.2 0.00 0.00 0.00 77 1040.3
20260831160703 30 353 0.0 0.0 0.00 0.00 0.00 74 1040.3
20260831160158 30 85 1.6 1.6 0.00 0.00 0.00 76 1040.5
20260831155657 30 6 0.0 0.0 0.00 0.00 0.00 77 1040.4
20260831155154 30 21 0.0 0.0 0.00 0.00 0.00 77 1040.3
20260831154649 30 3 0.0 0.0 0.00 0.00 0.00 76 1040.5
20260831154144 30 352 0.0 0.0 0.00 0.00 0.00 77 1040.4
20260831153643 29 16 0.0 0.0 0.00 0.00 0.00 79 1040.2
20260831153140 30 348 0.0 0.0 0.00 0.00 0.00 75 1040.2
20260831152635 30 322 0.0 0.0 0.00 0.00 0.00 75 1040.3
20260831152131 30 359 0.0 0.0 0.00 0.00 0.00 75 1040.2
20260831151630 30 19 0.0 0.0 0.00 0.00 0.00 75 1040.4
20260831151125 30 5 0.0 0.0 0.00 0.00 0.00 75 1040.5
20260831150620 30 39 0.0 0.0 0.00 0.00 0.00 76 1040.3
20260831150116 29 14 0.0 0.0 0.00 0.00 0.00 75 1040.3
20260831145609 30 319 3.2 3.2 0.00 0.00 0.00 77 1040.5
20260831145106 30 353 0.0 0.0 0.00 0.00 0.00 74 1040.3
20260831144602 30 359 0.0 0.0 0.00 0.00 0.00 74 1040.3
20260831144057 30 345 0.0 0.0 0.00 0.00 0.00 77 1040.3
20260831143551 30 330 0.0 0.0 0.00 0.00 0.00 74 1040.3
20260831143047 30 2 0.0 0.0 0.00 0.00 0.00 77 1040.5
20260831142543 29 0 0.0 0.0 0.00 0.00 0.00 78 1040.3
20260831142044 28 6 0.0 0.0 0.00 0.00 0.00 81 1040.4
20260831141543 27 11 0.0 0.0 0.00 0.00 0.00 84 1040.3
20260831141038 27 354 0.0 0.0 0.00 0.00 0.00 86 1040.5
20260831140538 26 353 0.0 0.0 0.00 0.00 0.00 87 1040.5
20260831140037 26 348 0.0 0.0 0.00 0.00 0.00 88 1040.6
20260831135535 26 355 0.0 0.0 0.00 0.00 0.00 88 1040.6
20260831135030 26 10 0.0 0.0 0.00 0.00 0.00 89 1040.4
20260831134526 26 358 0.0 0.0 0.00 0.00 0.00 90 1040.6
20260831134021 25 345 0.0 0.0 0.00 0.00 0.00 90 1040.6
20260831133515 25 334 0.0 0.0 0.00 0.00 0.00 91 1040.4
20260831133010 25 354 0.0 0.0 0.00 0.00 0.00 92 1040.4
20260831132507 25 303 0.0 0.0 0.00 0.00 0.00 92 1040.3
20260831132005 25 3 0.0 0.0 0.00 0.00 0.00 93 1040.4
20260831131500 24 352 0.0 0.0 0.00 0.00 0.00 94 1040.7
20260831130956 24 98 0.0 0.0 0.00 0.00 0.00 95 1040.6
20260831130451 23 41 0.0 0.0 0.00 0.00 0.00 96 1040.5
20260831125950 23 183 0.0 0.0 0.00 0.00 0.00 96 1040.4
20260831125445 23 189 0.0 0.0 0.00 0.00 0.00 97 1040.3
20260831124941 23 177 0.0 0.0 0.00 0.00 0.00 97 1040.2
20260831124437 23 181 0.0 0.0 0.00 0.00 0.00 97 1040.3
20260831123933 23 181 0.0 0.0 0.00 0.00 0.00 98 1039.9
20260831123431 23 190 1.6 3.2 0.00 0.00 0.00 98 1039.9
20260831122926 23 188 1.6 1.6 0.00 0.00 0.00 98 1039.8
20260831122421 22 178 3.2 3.2 0.00 0.00 0.00 98 1039.9
20260831121916 22 184 1.6 3.2 0.00 0.00 0.00 98 1039.7
20260831121412 22 189 3.2 3.2 0.00 0.00 0.00 98 1039.8
20260831120908 22 174 0.0 0.0 0.00 0.00 0.00 98 1039.5
20260831120402 22 73 0.0 0.0 0.00 0.00 0.00 98 1039.4
20260831115856 22 114 0.0 0.0 0.00 0.00 0.00 98 1039.4
20260831115353 22 61 0.0 0.0 0.00 0.00 0.00 98 1039.3
20260831114852 22 40 0.0 0.0 0.00 0.00 0.00 98 1039.3
20260831114351 22 44 0.0 0.0 0.00 0.00 0.00 98 1039.3
20260831113848 22 65 0.0 0.0 0.00 0.00 0.00 98 1039.3
20260831113347 22 12 0.0 0.0 0.00 0.00 0.00 97 1039.2
20260831112848 22 14 0.0 0.0 0.00 0.00 0.00 97 1039.1
20260831112342 22 40 0.0 0.0 0.00 0.00 0.00 97 1039.1
20260831111838 22 40 0.0 0.0 0.00 0.00 0.00 97 1038.9
20260831111334 22 41 0.0 0.0 0.00 0.00 0.00 97 1039.0
20260831110829 22 52 0.0 0.0 0.00 0.00 0.00 97 1038.8
20260831110324 23 1 0.0 0.0 0.00 0.00 0.00 96 1038.8
20260831105822 23 356 0.0 0.0 0.00 0.00 0.00 96 1038.7
20260831105318 23 352 0.0 0.0 0.00 0.00 0.00 96 1038.7
20260831104813 23 14 0.0 0.0 0.00 0.00 0.00 96 1038.9
20260831104309 23 9 0.0 0.0 0.00 0.00 0.00 95 1038.7
20260831103804 23 12 0.0 0.0 0.00 0.00 0.00 95 1038.7
20260831103300 23 264 1.6 1.6 0.00 0.00 0.00 95 1038.6
20260831102759 23 346 0.0 0.0 0.00 0.00 0.00 94 1038.8
20260831102254 23 339 0.0 0.0 0.00 0.00 0.00 94 1038.6
20260831101750 23 321 0.0 0.0 0.00 0.00 0.00 96 1038.5
20260831101245 23 357 0.0 0.0 0.00 0.00 0.00 96 1038.6
20260831100741 23 347 0.0 0.0 0.00 0.00 0.00 96 1038.7
20260831100237 23 290 0.0 0.0 0.00 0.00 0.00 96 1038.7
20260831095736 23 322 0.0 0.0 0.00 0.00 0.00 96 1038.4
20260831095230 23 357 0.0 0.0 0.00 0.00 0.00 95 1038.5
20260831094725 23 6 0.0 0.0 0.00 0.00 0.00 95 1038.5
20260831094221 23 6 0.0 0.0 0.00 0.00 0.00 95 1038.6
20260831093717 23 6 0.0 0.0 0.00 0.00 0.00 94 1038.5
20260831093212 23 6 0.0 0.0 0.00 0.00 0.00 94 1038.5
20260831092709 23 6 0.0 0.0 0.00 0.00 0.00 94 1038.3
20260831092204 23 5 0.0 0.0 0.00 0.00 0.00 94 1038.4
20260831091703 23 23 0.0 0.0 0.00 0.00 0.00 94 1038.4
20260831091159 23 11 0.0 0.0 0.00 0.00 0.00 93 1038.5
20260831090654 23 9 0.0 0.0 0.00 0.00 0.00 93 1038.6
20260831090150 23 8 0.0 0.0 0.00 0.00 0.00 93 1038.4
20260831085645 23 27 0.0 0.0 0.00 0.00 0.00 93 1038.2
20260831085140 23 28 0.0 0.0 0.00 0.00 0.00 93 1038.3
20260831084636 23 28 0.0 0.0 0.00 0.00 0.00 93 1038.2
20260831084132 23 0 0.0 0.0 0.00 0.00 0.00 93 1038.1
20260831083628 23 359 0.0 0.0 0.00 0.00 0.00 93 1038.1
20260831083123 23 359 0.0 0.0 0.00 0.00 0.00 92 1038.1
20260831082621 23 359 0.0 0.0 0.00 0.00 0.00 92 1038.0
20260831082117 23 359 0.0 0.0 0.00 0.00 0.00 92 1038.0
20260831081612 23 359 0.0 0.0 0.00 0.00 0.00 91 1037.9
20260831081108 23 26 0.0 0.0 0.00 0.00 0.00 91 1037.9
20260831080603 23 26 0.0 0.0 0.00 0.00 0.00 91 1038.1
20260831080058 24 3 0.0 0.0 0.00 0.00 0.00 91 1037.8
20260831075554 24 271 1.6 1.6 0.00 0.00 0.00 91 1038.0
20260831075049 24 11 0.0 0.0 0.00 0.00 0.00 90 1037.9
20260831074548 24 15 0.0 0.0 0.00 0.00 0.00 90 1037.9
20260831074043 25 12 0.0 0.0 0.00 0.00 0.00 89 1037.8
20260831073538 25 12 0.0 0.0 0.00 0.00 0.00 89 1037.9
20260831073038 25 10 0.0 0.0 0.00 0.00 0.00 89 1037.8
20260831072533 24 315 0.0 0.0 0.00 0.00 0.00 90 1037.8
20260831072030 24 189 0.0 0.0 0.00 0.00 0.00 90 1038.0
20260831071528 24 185 1.6 1.6 0.00 0.00 0.00 90 1037.8
20260831071024 25 114 1.6 1.6 0.00 0.00 0.00 89 1038.1
20260831070522 25 266 0.0 0.0 0.00 0.00 0.00 89 1037.9
20260831070018 25 276 0.0 0.0 0.00 0.00 0.00 89 1037.8
20260831065515 25 325 0.0 0.0 0.00 0.00 0.00 88 1037.8
20260831065010 25 358 0.0 0.0 0.00 0.00 0.00 87 1037.7
20260831064505 25 358 0.0 0.0 0.00 0.00 0.00 87 1037.8
20260831064001 25 348 0.0 0.0 0.00 0.00 0.00 87 1038.0
20260831063456 25 354 0.0 0.0 0.00 0.00 0.00 86 1037.9
20260831062955 25 359 0.0 0.0 0.00 0.00 0.00 87 1037.9
20260831062451 25 2 0.0 0.0 0.00 0.00 0.00 86 1037.8
20260831061950 25 4 0.0 0.0 0.00 0.00 0.00 86 1037.6
20260831061448 25 357 0.0 0.0 0.00 0.00 0.00 85 1037.6
20260831060945 25 5 0.0 0.0 0.00 0.00 0.00 85 1037.8
20260831060440 25 5 0.0 0.0 0.00 0.00 0.00 85 1037.7
20260831055939 25 354 0.0 0.0 0.00 0.00 0.00 85 1037.6
20260831055434 25 14 0.0 0.0 0.00 0.00 0.00 85 1037.9
20260831054930 25 354 0.0 0.0 0.00 0.00 0.00 85 1037.9
20260831054430 26 353 0.0 0.0 0.00 0.00 0.00 84 1038.0
20260831053924 25 357 0.0 0.0 0.00 0.00 0.00 85 1038.1
20260831053422 25 357 0.0 0.0 0.00 0.00 0.00 85 1038.1
20260831052917 25 343 0.0 0.0 0.00 0.00 0.00 84 1038.1
20260831052416 25 343 0.0 0.0 0.00 0.00 0.00 84 1038.1
20260831051914 26 343 0.0 0.0 0.00 0.00 0.00 84 1038.1
20260831051413 26 343 0.0 0.0 0.00 0.00 0.00 85 1038.2
20260831050908 25 343 0.0 0.0 0.00 0.00 0.00 84 1038.2
20260831050402 26 343 0.0 0.0 0.00 0.00 0.00 85 1038.4
20260831045856 26 343 0.0 0.0 0.00 0.00 0.00 85 1038.4
20260831045355 26 347 0.0 0.0 0.00 0.00 0.00 84 1038.3
20260831044850 26 346 0.0 0.0 0.00 0.00 0.00 84 1038.3
20260831044345 26 348 0.0 0.0 0.00 0.00 0.00 84 1038.2
20260831043841 26 348 0.0 0.0 0.00 0.00 0.00 85 1038.3
20260831043340 26 20 0.0 0.0 0.00 0.00 0.00 84 1038.2
20260831042835 26 16 0.0 0.0 0.00 0.00 0.00 83 1038.2
20260831042335 26 16 0.0 0.0 0.00 0.00 0.00 83 1038.2
20260831041831 26 17 0.0 0.0 0.00 0.00 0.00 83 1038.2
20260831041330 26 17 0.0 0.0 0.00 0.00 0.00 83 1038.2
20260831040825 26 16 0.0 0.0 0.00 0.00 0.00 82 1038.0
20260831040324 26 16 0.0 0.0 0.00 0.00 0.00 82 1038.0
20260831035823 26 16 0.0 0.0 0.00 0.00 0.00 82 1037.9
20260831035321 26 16 0.0 0.0 0.00 0.00 0.00 82 1038.0
20260831034816 26 14 0.0 0.0 0.00 0.00 0.00 82 1038.1
20260831034312 26 3 0.0 0.0 0.00 0.00 0.00 83 1038.1
20260831033807 26 349 0.0 0.0 0.00 0.00 0.00 83 1038.2
20260831033307 26 341 0.0 0.0 0.00 0.00 0.00 82 1038.1
20260831032803 26 350 0.0 0.0 0.00 0.00 0.00 83 1038.4
20260831032257 26 351 0.0 0.0 0.00 0.00 0.00 82 1038.2
20260831031752 26 351 0.0 0.0 0.00 0.00 0.00 82 1038.3
20260831031251 26 351 0.0 0.0 0.00 0.00 0.00 82 1038.0
20260831030746 26 351 0.0 0.0 0.00 0.00 0.00 82 1038.1
20260831030244 26 351 0.0 0.0 0.00 0.00 0.00 82 1037.9
20260831025744 26 351 0.0 0.0 0.00 0.00 0.00 83 1038.3
20260831025238 26 351 0.0 0.0 0.00 0.00 0.00 83 1037.9
20260831024735 26 351 0.0 0.0 0.00 0.00 0.00 82 1038.2
20260831024233 26 351 0.0 0.0 0.00 0.00 0.00 82 1038.0
20260831023732 26 351 0.0 0.0 0.00 0.00 0.00 83 1038.0
20260831023231 26 351 0.0 0.0 0.00 0.00 0.00 83 1038.1
20260831022727 26 351 0.0 0.0 0.00 0.00 0.00 83 1038.1
20260831022221 26 351 0.0 0.0 0.00 0.00 0.00 82 1038.0
20260831021720 26 351 0.0 0.0 0.00 0.00 0.00 82 1038.0
20260831021215 26 351 0.0 0.0 0.00 0.00 0.00 81 1038.2
20260831020712 26 351 0.0 0.0 0.00 0.00 0.00 81 1037.9
20260831020211 27 351 0.0 0.0 0.00 0.00 0.00 81 1038.0
20260831015706 27 351 0.0 0.0 0.00 0.00 0.00 81 1038.0
20260831015201 27 351 0.0 0.0 0.00 0.00 0.00 80 1037.7
20260831014656 27 351 0.0 0.0 0.00 0.00 0.00 79 1037.5
20260831014151 27 351 0.0 0.0 0.00 0.00 0.00 79 1037.7
20260831013647 27 351 0.0 0.0 0.00 0.00 0.00 78 1037.8
20260831013146 27 351 0.0 0.0 0.00 0.00 0.00 78 1037.6
20260831012642 27 351 0.0 0.0 0.00 0.00 0.00 77 1037.7
20260831012137 27 351 0.0 0.0 0.00 0.00 0.00 77 1037.5
20260831011636 27 351 0.0 0.0 0.00 0.00 0.00 76 1037.4
20260831011132 28 351 0.0 0.0 0.00 0.00 0.00 76 1037.3
20260831010627 28 351 0.0 0.0 0.00 0.00 0.00 75 1037.5
20260831010123 28 351 0.0 0.0 0.00 0.00 0.00 75 1037.2
20260831005617 28 350 0.0 0.0 0.00 0.00 0.00 74 1037.1
20260831005112 28 11 0.0 0.0 0.00 0.00 0.00 73 1037.2
20260831004608 28 11 0.0 0.0 0.00 0.00 0.00 73 1037.4
20260831004103 28 359 0.0 0.0 0.00 0.00 0.00 72 1037.4
20260831003600 29 352 0.0 0.0 0.00 0.00 0.00 71 1037.3
20260831003055 29 22 0.0 0.0 0.00 0.00 0.00 70 1037.1
20260831002554 29 351 0.0 0.0 0.00 0.00 0.00 69 1037.3
20260831002049 29 21 0.0 0.0 0.00 0.00 0.00 69 1037.1
20260831001544 30 19 0.0 0.0 0.00 0.00 0.00 69 1037.2
20260831001041 30 19 0.0 0.0 0.00 0.00 0.00 68 1037.0
20260831000537 30 13 0.0 0.0 0.00 0.00 0.00 68 1037.1
20260831000036 30 22 0.0 0.0 0.00 0.00 0.00 68 1037.0
20260830235535 30 342 0.0 0.0 0.00 0.00 0.00 67 1037.3
20260830235031 30 354 0.0 0.0 0.00 0.00 0.00 67 1037.3
20260830234525 30 22 0.0 0.0 0.00 0.00 0.00 67 1037.1
20260830234021 30 341 0.0 0.0 0.00 0.00 0.00 67 1037.0
20260830233516 30 14 0.0 0.0 0.00 0.00 0.00 66 1037.2
20260830233012 30 355 0.0 0.0 0.00 0.00 0.00 66 1037.0
20260830232508 30 15 0.0 0.0 0.00 0.00 0.00 66 1036.9
20260830232004 30 1 0.0 0.0 0.00 0.00 0.00 66 1037.0
20260830231459 30 8 0.0 0.0 0.00 0.00 0.00 66 1037.1
20260830230958 30 8 0.0 0.0 0.00 0.00 0.00 66 1036.9
20260830230454 30 348 0.0 0.0 0.00 0.00 0.00 66 1037.1
20260830225952 30 22 0.0 0.0 0.00 0.00 0.00 66 1037.0